DECAYED

STARLINK-5165, 54081 (Decayed)

Orbit data source: Space-Track

STARLINK-5165, 54081 was a payload satellite owned by SpaceX/Seattle (US) in LEO that was launched on Thu, 20 Oct 2022 UTC via an FALCON 9 launch vehicle from the Air Force Eastern Test Range (AFETR). Payload-class satellites include a variety of spacecraft equipped with specific instruments for various scientific and technological missions. These include communications satellites like Starlink; space stations such as the ISS; scientific satellites like the Hubble; Earth observation satellites from companies like Planet Labs, Umbra, and HawkEye 360; GPS; miniature CubeSats for education and research; and military/defense satellites.

Not visible in the next 10 days
Identifier
54081, 2022-136AG
Orbit
Decayed
Country
Flag of USUS
Related business
Manufacturer
SpaceX/Seattle
Mission
Decayed Commercial Communications
Bus & Motor
STARLINK, Unknown motor
Mass
305 kg wet, ~290 kg dry
Launch date (UTC)
2022-10-20 (3 years ago)
Launch vehicle
FALCON 9
Launch site
Air Force Eastern Test Range (AFETR)
Object type
Payload
Rocket body
Debris
Shape & HBR
Box + 1 Pan, 10.1 m
Radar Cross Section
13.562 m², Large (>1 m²)

Expand to show TLE details & history
Last TLE update: 2 months ago

TLE from 2 months ago
0 STARLINK-5165
1 54081U 22136AG  25287.28065933  .12321640  12504-4  28278-3 0  9997
2 54081  53.1944 248.2484 0005598 261.0566  98.9852 16.46124956165200
Epoch: 2025-10-14T06:44Z
TLE epoch observation values (Epoch: 2025-10-14T06:44:08.966Z)
Latitude
0.00003°
Longitude
124.13972°
Altitude
151.081 km
Speed
7.817 km/s
True Right ascension
16h 32m 59s
True Declination
0° 00' 00"
Sunlit
Object was in daylight at epoch
Visualization orbit readout
Latitude
Unknown
Longitude
Unknown
Altitude
Unknown
Speed
Unknown
Apparent Right ascension
Unknown
Apparent Declination
Unknown
Sunlit
N/A
Visualization observer readout
Local Sidereal Time
01:30:24
Azimuth
Unknown
Elevation
Unknown
Doppler factor
Unknown
Orbital elements
Apogee altitude
153.477 km
Perigee altitude
146.168 km
Semi-major axis
6,527.96 km
Eccentricity
0.00056
Inclination
53.1944°
RAAN
248.2484°
Arg. of periapsis
261.0566°
True anomaly
99.04855°
Mean anomaly
98.9852°
Eccentric anomaly
99.01688°
Mean motion
4.11507 °/min
Orbital period
87.48 mins
BSTAR
0.00028278
Loading maneuver chart data...
Computing Atmospheric mass density...
Loading historical data...
Loading historical data...
Loading historical data...
Loading historical data...
Loading historical data...
Loading historical data...
Loading historical data...

Documentation

Showing up to 5 results
|